Regional Weather Roundup
Issued by NWS

Home | Current Version | Previous Version | Text Only | Print | Product List | Glossary Off
Versions: 1 2 3 4 5 6 7 8 9 10 11 12 13 14 15 16 17 18 19 20 21 22 23 24 25 26 27 28 29 30 31 32 33 34 35 36 37 38 39 40 41 42 43 44 45 46 47 48 49 50

000
ASUS45 KABQ 020310
RWRNM
NEW MEXICO REGIONAL WEATHER ROUNDUP
NATIONAL WEATHER SERVICE ALBUQUERQUE NM
900 PM MDT MON JUN 01 2015

NOTE: "FAIR" MEANS FEW OR NO CLOUDS BELOW 12,000 FEET AGL WITH NO
       SIGNIFICANT WEATHER OR OBSTRUCTIONS TO VISION.

      THIS PRODUCT IS RELEASED AS TWO VERSIONS.  ONE VERSION NEAR
      THE TOP OF THE HOUR CONTAINING PRELIMINARY DATA FROM ALBUQUERQUE
      AND OTHER STATIONS.  A FINAL VERSION WITH ADDITIONAL DATA IS
      ISSUED ABOUT 10 MINUTES AFTER THE HOUR.

NMZ501-503-504-510>518-020400-
NORTHWEST PLATEAU/NORTHCENTRAL MOUNTAINS

CITY           SKY/WX    TMP DP  RH WIND       PRES   REMARKS
FARMINGTON     CLEAR     78  31  17 S10       30.02R
LOS ALAMOS     PTCLDY    65  41  40 SW8       30.23R
SANTA FE       PTCLDY    70  38  31 SE9       30.17R
TAOS           MOCLDY    61  39  44 E13       30.21S
ANGEL FIRE     CLOUDY    57  41  55 SW3       30.33R

$$
NMZ402-403-502-505>509-020400-
WESTCENTRAL MOUNTAINS/SOUTHWEST MOUNTAINS

CITY           SKY/WX    TMP DP  RH WIND       PRES   REMARKS
GALLUP         CLEAR     71  10   9 SW9       30.15R
GRANTS         CLEAR     65  38  36 S8        30.20R
SILVER CITY      N/A     75  27  16 W8        30.12R

$$
NMZ407-409-411-412-020400-
SOUTHERN DESERTS

CITY           SKY/WX    TMP DP  RH WIND       PRES   REMARKS
LORDSBURG      FAIR      82  12   7 W12       30.02R
DEMING         MOCLDY    82  39  21 SE3       30.01S
LAS CRUCES     PTCLDY    80  36  20 CALM      30.04S
HOLLOMAN AFB   PTCLDY    79  40  24 E7        30.00S
ALAMOGORDO     PTCLDY    81  39  22 N5        30.03R
T OR C         CLEAR     80  39  23 S3        30.05S

$$
NMZ519>523-020400-
CENTRAL VALLEYS/CENTRAL HIGHLANDS

CITY           SKY/WX    TMP DP  RH WIND       PRES   REMARKS
ALBUQUERQUE    CLOUDY    79  39  23 W7        30.11R
DOUBLE EAGLE   PTCLDY    68  45  42 W10       30.14R
MORIARTY ARPT  MOCLDY    66  42  42 E12       30.17R
CLINES CORNERS MOCLDY    63  46  54 E15       30.22S
BELEN          FAIR      73  41  31 W3        30.09S
SOCORRO        FAIR      75  42  30 NW3       30.06R

$$
NMZ524>526-539-540-020400-
SOUTHCENTRAL MOUNTAINS

CITY           SKY/WX    TMP DP  RH WIND       PRES   REMARKS
RUIDOSO        MOCLDY    63  43  48 S8        30.25S

$$
NMZ527>531-020400-
NORTHEAST HIGHLANDS/NORTHEAST PLAINS

CITY           SKY/WX    TMP DP  RH WIND       PRES   REMARKS
LAS VEGAS      MOCLDY    58  46  64 S12       30.23F
RATON          MOCLDY    63  46  54 W7        30.19R
CLAYTON        CLOUDY    64  53  67 S8        30.08R

$$
NMZ532>537-020400-
EASTCENTRAL PLAINS

CITY           SKY/WX    TMP DP  RH WIND       PRES   REMARKS
TUCUMCARI      CLOUDY    71  54  54 CALM      30.05R
CANNON AFB     MOCLDY    67  60  78 E12       30.11R
CLOVIS AIRPORT CLOUDY    64  59  82 SE14        N/A  THUNDER

$$
NMZ028-029-538-020400-
SOUTHEAST PLAINS

CITY           SKY/WX    TMP DP  RH WIND       PRES   REMARKS
ROSWELL        MOCLDY    77  52  41 S9        30.02R
ARTESIA        MOCLDY    75  57  53 W14G23    30.05R
CARLSBAD       PTCLDY    78  55  44 S9        29.99R
HOBBS          CLOUDY    75  52  43 SE10      30.04S


$$


USA.gov is the U.S. government's official web portal to all federal, state and local government web resources and services.